Location: Étavigny
(49.1201°N, 2.9800°E)
Time: 07:46:28
(UTC+00:00)

NOSS 3-4 (A) - Pass Details

Date: 28 January 2023
Orbit: 835 x 1377 km, 63.4° (Epoch: 19 March)

Event Time Altitude Azimuth Distance (km) Brightness Sun altitude
Rises 17:35:02 0° 317° (NW) 3,761 6.9 -9.5°
Reaches altitude 10° 17:37:30 10° 316° (NW) 2,879 6.4 -9.9°
Maximum altitude 17:44:22 75° 233° (SW) 1,203 4.1 -11.0°
Drops below altitude 10° 17:52:12 10° 149° (SSE) 3,256 6.1 -12.2°
Sets 17:55:09 0° 148° (SSE) 4,282 6.7 -12.7°
